Change the Weather History Date:

Sunday, May 12, 2013

  Actual Average Record
Temperature  
Mean Temperature 42 °F -  
Max Temperature 51 °F 71 °F 88 °F (1928)
Min Temperature 32 °F 45 °F 27 °F (1941)
Degree Days  
Heating Degree Days 24    
Moisture  
Dew Point 32 °F    
Average Humidity 64    
Maximum Humidity 96    
Minimum Humidity 40    
Precipitation  
Precipitation 0.01 in - - ()
Sea Level Pressure  
Sea Level Pressure 29.98 in    
Wind  
Wind Speed 13 mph (West)    
Max Wind Speed 21 mph    
Max Gust Speed 31 mph    
Visibility 10 miles    
Events Rain    
Averages and records for this station are not official NWS values.
T = Trace of Precipitation, MM = Missing Value Source: NWS Daily Summary

Daily Weather History Graph

Daily Weather History Graph

Search for Another Location

Airport or City:

Trip Planner

Search our weather history database for the weather conditions in past years. The results will help you decide how hot, cold, wet, or windy it might be!

Date:

Astronomy

May. 12, 2013 Rise Set
Actual Time 6:06 AM EDT 8:30 PM EDT
Civil Twilight 5:35 AM EDT 9:01 PM EDT
Nautical Twilight 4:57 AM EDT 9:39 PM EDT
Astronomical Twilight 4:14 AM EDT 10:22 PM EDT
Moon 8:00 AM EDT (5/12) 10:56 PM EDT (5/12)
Length of Visible Light 15h 25m
Length of Day
14h 23m
Waxing Crescent, 6% of the Moon is Illuminated
May 12
Waxing Crescent
May 18
First Quarter
May 25
Full
May 31
Last Quarter
Jun 8
New

Hourly Weather History & Observations

Time (EDT) Temp. Windchill Dew Point Humidity Pressure Visibility Wind Dir Wind Speed Gust Speed Precip Events Conditions
12:19 AM 51.8 °F - 46.4 °F 82% 29.85 in 4.0 mi West 20.7 mph 28.8 mph 0.00 in Rain Rain
12:47 AM 46.4 °F 41.5 °F 42.8 °F 87% 29.86 in 10.0 mi WNW 10.4 mph 17.3 mph 0.01 in Rain Light Rain
12:56 AM 45.9 °F 40.8 °F 41.9 °F 86% 29.92 in 10.0 mi West 10.4 mph 17.3 mph 0.01 in Rain Light Rain
1:56 AM 44.6 °F 37.4 °F 37.4 °F 76% 29.89 in 10.0 mi NW 16.1 mph 24.2 mph N/A   Overcast
2:08 AM 42.8 °F 36.6 °F 37.4 °F 81% 29.90 in 10.0 mi WNW 11.5 mph - N/A   Overcast
2:56 AM 41.0 °F 34.7 °F 34.9 °F 79% 29.96 in 10.0 mi West 10.4 mph - N/A   Mostly Cloudy
3:56 AM 36.9 °F 33.1 °F 32.0 °F 83% 29.97 in 10.0 mi WNW 4.6 mph - N/A   Partly Cloudy
4:56 AM 35.6 °F - 32.0 °F 87% 29.91 in 10.0 mi Calm Calm - N/A   Clear
5:56 AM 32.9 °F 29.8 °F 32.0 °F 96% 29.98 in 10.0 mi SW 3.5 mph - N/A   Clear
6:56 AM 36.0 °F 32.1 °F 32.9 °F 89% 29.98 in 10.0 mi SSW 4.6 mph - N/A   Mostly Cloudy
7:56 AM 42.8 °F 38.6 °F 33.8 °F 70% 29.92 in 10.0 mi SW 6.9 mph - N/A   Clear
8:56 AM 45.0 °F 39.3 °F 32.0 °F 60% 29.98 in 10.0 mi West 11.5 mph 17.3 mph N/A   Clear
9:56 AM 45.9 °F 38.0 °F 30.0 °F 54% 29.98 in 10.0 mi WSW 20.7 mph 26.5 mph N/A   Scattered Clouds
10:56 AM 48.2 °F - 28.4 °F 46% 29.92 in 10.0 mi WSW 16.1 mph 31.1 mph N/A   Mostly Cloudy
11:56 AM 47.8 °F - 27.1 °F 45% 29.98 in 10.0 mi WSW 17.3 mph 23.0 mph N/A   Mostly Cloudy
12:56 PM 47.8 °F - 29.1 °F 48% 29.99 in 10.0 mi WSW 16.1 mph 27.6 mph N/A   Mostly Cloudy
1:56 PM 48.2 °F - 26.6 °F 43% 29.95 in 10.0 mi West 18.4 mph 24.2 mph N/A   Mostly Cloudy
2:56 PM 48.9 °F - 28.0 °F 44% 30.02 in 10.0 mi WSW 17.3 mph 28.8 mph N/A   Scattered Clouds
3:56 PM 48.9 °F - 25.2 °F 40% 30.02 in 10.0 mi West 19.6 mph 27.6 mph N/A   Mostly Cloudy
4:56 PM 48.2 °F - 26.6 °F 43% 29.97 in 10.0 mi West 18.4 mph 25.3 mph N/A   Mostly Cloudy
5:56 PM 48.9 °F - 25.2 °F 40% 30.05 in 10.0 mi West 16.1 mph 28.8 mph N/A   Mostly Cloudy
6:56 PM 46.9 °F - 27.1 °F 46% 30.05 in 10.0 mi West 9.2 mph 17.3 mph N/A   Scattered Clouds
7:56 PM 44.6 °F 39.7 °F 28.4 °F 53% 30.00 in 10.0 mi West 9.2 mph - N/A   Mostly Cloudy
8:56 PM 43.9 °F 40.5 °F 29.1 °F 56% 30.07 in 10.0 mi WSW 5.8 mph - N/A   Mostly Cloudy
9:56 PM 43.9 °F 39.9 °F 27.1 °F 52% 30.10 in 10.0 mi Variable 6.9 mph - N/A   Partly Cloudy
10:56 PM 41.0 °F 33.9 °F 30.2 °F 65% 30.06 in 10.0 mi WNW 12.7 mph 18.4 mph N/A   Mostly Cloudy
11:56 PM 37.9 °F 30.9 °F 32.0 °F 79% 30.14 in 10.0 mi NW 10.4 mph 16.1 mph N/A   Clear